Cahaba River Weather Center

Moon Phase Calendar



Online Cameras

 


      

Current Conditions in Centreville
5/6/2021 4:49:23 AM

52°F
Feels Like 52
Clouds
Humidity
94%
Pressure
30.09"
Wind
4 mph (N)
Dew Point
51°F
UV Index
0/10 (Low)
Visibility
6 mi

Hourly Forecast

Date & Time Thu, May 6
4:00 AM
Thu, May 6
5:00 AM
Thu, May 6
6:00 AM
Thu, May 6
7:00 AM
Thu, May 6
8:00 AM
Thu, May 6
9:00 AM
Thu, May 6
10:00 AM
Thu, May 6
11:00 AM
Thu, May 6
12:00 PM
Thu, May 6
1:00 PM
Thu, May 6
2:00 PM
Thu, May 6
3:00 PM
Thu, May 6
4:00 PM
Thu, May 6
5:00 PM
Thu, May 6
6:00 PM
Thu, May 6
7:00 PM
Thu, May 6
8:00 PM
Thu, May 6
9:00 PM
Thu, May 6
10:00 PM
Thu, May 6
11:00 PM
Fri, May 7
12:00 AM
Fri, May 7
1:00 AM
Fri, May 7
2:00 AM
Fri, May 7
3:00 AM
Fri, May 7
4:00 AM
Fri, May 7
5:00 AM
Fri, May 7
6:00 AM
Fri, May 7
7:00 AM
Fri, May 7
8:00 AM
Fri, May 7
9:00 AM
Fri, May 7
10:00 AM
Fri, May 7
11:00 AM
Fri, May 7
12:00 PM
Fri, May 7
1:00 PM
Fri, May 7
2:00 PM
Fri, May 7
3:00 PM
Fri, May 7
4:00 PM
Fri, May 7
5:00 PM
Fri, May 7
6:00 PM
Fri, May 7
7:00 PM
Fri, May 7
8:00 PM
Fri, May 7
9:00 PM
Fri, May 7
10:00 PM
Fri, May 7
11:00 PM
Sat, May 8
12:00 AM
Sat, May 8
1:00 AM
Sat, May 8
2:00 AM
Sat, May 8
3:00 AM
Condition
Clouds

Clouds

Clouds

Clouds

Clouds

Clouds

Clouds

Clouds

Clouds

Clouds

Clear

Clear

Clear

Clear

Clear

Clear

Clear

Clear

Clear

Clear

Clear

Clear

Clear

Clear

Clear

Clear

Clouds

Clouds

Clouds

Clouds

Clouds

Clouds

Clouds

Clear

Clear

Clear

Clear

Clear

Clear

Clear

Clear

Clouds

Clouds

Clouds

Clouds

Clouds

Clear

Clouds
Temperature 52°F52°F52°F53°F56°F61°F66°F69°F71°F74°F75°F75°F75°F74°F71°F65°F61°F59°F58°F58°F57°F55°F54°F52°F51°F50°F49°F52°F54°F58°F61°F64°F66°F68°F69°F70°F70°F69°F67°F61°F56°F54°F52°F51°F51°F50°F50°F50°F
Feels Like 52°F52°F51°F52°F55°F59°F65°F68°F70°F72°F73°F74°F73°F72°F70°F64°F60°F58°F57°F57°F56°F54°F53°F52°F50°F47°F46°F50°F52°F55°F58°F61°F64°F66°F67°F68°F68°F67°F65°F59°F54°F53°F51°F49°F49°F48°F50°F50°F
Cloudiness 24%29%32%32%37%25%31%37%30%25%0%0%0%0%0%0%0%0%3%7%5%5%0%0%0%3%12%26%55%27%18%14%11%9%0%0%0%0%0%0%6%49%36%28%25%22%8%16%
Visibility 6 mi6 mi6 mi6 mi6 mi6 mi6 mi6 mi6 mi6 mi6 mi6 mi6 mi6 mi6 mi6 mi6 mi6 mi6 mi6 mi6 mi6 mi6 mi6 mi6 mi6 mi6 mi6 mi6 mi6 mi6 mi6 mi6 mi6 mi6 mi6 mi6 mi6 mi6 mi6 mi6 mi6 mi6 mi6 mi6 mi6 mi6 mi6 mi
Precipitation 0%0%0%0%0%0%0%0%0%0%0%0%0%0%0%0%0%3%0%0%0%0%0%0%0%0%0%0%0%0%0%0%0%0%0%0%0%0%0%0%0%0%0%0%0%0%0%0%
Humidity 95%94%93%89%75%59%42%36%32%29%29%29%30%33%44%61%67%74%76%79%81%83%90%93%95%97%93%77%58%48%41%36%33%31%30%29%30%32%41%59%62%65%69%71%73%73%74%74%
Dew Point 51°F51°F50°F50°F48°F47°F43°F42°F40°F40°F40°F41°F42°F43°F48°F51°F50°F51°F50°F51°F51°F50°F51°F50°F50°F49°F47°F45°F40°F38°F37°F36°F36°F37°F37°F37°F37°F38°F43°F46°F43°F43°F43°F42°F42°F42°F42°F42°F
Pressure 30.09"30.09"30.09"30.12"30.12"30.15"30.12"30.12"30.12"30.09"30.09"30.06"30.03"30.03"30.03"30.03"30.06"30.06"30.06"30.09"30.09"30.09"30.09"30.09"30.09"30.12"30.12"30.15"30.18"30.18"30.18"30.18"30.18"30.15"30.12"30.12"30.09"30.09"30.09"30.09"30.12"30.12"30.12"30.12"30.12"30.12"30.12"30.09"
Wind Speed 4.5 mph4 mph4.3 mph4 mph6.6 mph7.6 mph7.7 mph8.1 mph7.3 mph7.5 mph8.4 mph9 mph8.3 mph8.5 mph6.9 mph5.6 mph6.3 mph5.5 mph5.1 mph6.2 mph6.7 mph6.7 mph6.5 mph6.8 mph6.7 mph6.8 mph7.5 mph9 mph9.4 mph9.6 mph9.3 mph9.3 mph9.3 mph9.3 mph9.3 mph9.4 mph9.2 mph8.9 mph6.9 mph3.8 mph3 mph3.5 mph3.4 mph2.6 mph0.7 mph1.8 mph2 mph2.9 mph
Wind
Direction

N
11°
N

N

N

N

N
355°
N
348°
NNW
342°
NNW
333°
NNW
330°
NNW
326°
NW
321°
NW
312°
NW
307°
NW
287°
WNW
295°
WNW
296°
WNW
288°
WNW
320°
NW
327°
NNW
333°
NNW
341°
NNW
346°
NNW
341°
NNW
339°
NNW
341°
NNW
349°
N
357°
N

N
355°
N
350°
N
345°
NNW
341°
NNW
338°
NNW
338°
NNW
339°
NNW
341°
NNW
343°
NNW
360°
N
27°
NNE
53°
NE
83°
E
98°
E
145°
SE
185°
S
182°
S
186°
S

Daily Forecast

Date High Low Precip. Humidity
Today
May 6

Clouds
75 °F
52 °F
3%
32%
Friday
May 7

Clouds
70 °F
49 °F
0%
33%
Saturday
May 8

Clouds
77 °F
50 °F
0%
32%
Sunday
May 9

Clouds
83 °F
53 °F
0%
34%
Monday
May 10

Rain
79 °F
65 °F
100%
61%
Tuesday
May 11

Rain
79 °F
61 °F
100%
70%
Wednesday
May 12

Rain
73 °F
61 °F
88%
72%
Thursday
May 13

Rain
75 °F
59 °F
100%
81%
Friday
May 14

Clear
72 °F
49 °F
0%
40%
Saturday
May 15

Clear
77 °F
47 °F
0%
34%
Sunday
May 16

Clear
81 °F
54 °F
0%
39%
Monday
May 17

Clouds
84 °F
59 °F
0%
46%
Tuesday
May 18

Rain
68 °F
65 °F
100%
98%
Wednesday
May 19

Rain
71 °F
63 °F
100%
93%
Thursday
May 20

Rain
70 °F
61 °F
66%
82%
Friday
May 21

Rain
65 °F
62 °F
32%
84%

Temperature 8-14 Day Outlook



Precipitation 8-14 Day Outlook




Quick Links
Cahaba River News
Cahaba River Photos
Cahaba River Videos




About Us
Contact Us
Site Map
Search Site
Advertise With Us
   
Cahaba.DiscoverRivers.com
THE CAHABA RIVER WEBSITE

Copyright 2021, Discover Rivers
Privacy    |    Legal